Wetterdaten: Freitag, 27.06.2014
Datum Zeit Temp. I. Temp. A. Boden 5 cm Feuchte A. Sonne Luftdruck Regen Wind Sonnenschein
27.06.2014 00:02 22,7 C 14,3 C 13,7 C 59 % 0 % 1018 hPa 0,0 l/m 0,0 km/h (0 Bft) 0 min
27.06.2014 00:05 22,7 C 14,3 C 14,1 C 58 % 0 % 1018 hPa 0,0 l/m 0,0 km/h (0 Bft) 0 min
27.06.2014 00:08 22,7 C 14,2 C 14,3 C 59 % 0 % 1018 hPa 0,0 l/m 0,0 km/h (0 Bft) 0 min
27.06.2014 00:11 22,7 C 14,2 C 13,9 C 58 % 0 % 1018 hPa 0,0 l/m 0,0 km/h (0 Bft) 0 min
27.06.2014 00:14 22,7 C 14,1 C 13,8 C 59 % 0 % 1018 hPa 0,0 l/m 0,0 km/h (0 Bft) 0 min
27.06.2014 00:17 22,7 C 14,0 C 13,8 C 59 % 0 % 1018 hPa 0,0 l/m 0,0 km/h (0 Bft) 0 min
27.06.2014 00:20 22,7 C 14,0 C 13,9 C 60 % 0 % 1018 hPa 0,0 l/m 0,0 km/h (0 Bft) 0 min
27.06.2014 00:23 22,7 C 14,0 C 14,0 C 60 % 0 % 1018 hPa 0,0 l/m 0,0 km/h (0 Bft) 0 min
27.06.2014 00:26 22,7 C 13,8 C 13,4 C 60 % 0 % 1018 hPa 0,0 l/m 0,0 km/h (0 Bft) 0 min
27.06.2014 00:29 22,7 C 13,8 C 13,9 C 60 % 0 % 1018 hPa 0,0 l/m 0,0 km/h (0 Bft) 0 min
27.06.2014 00:32 22,7 C 13,8 C 13,9 C 60 % 0 % 1018 hPa 0,0 l/m 0,0 km/h (0 Bft) 0 min
27.06.2014 00:35 22,7 C 13,7 C 13,9 C 60 % 0 % 1018 hPa 0,0 l/m 0,0 km/h (0 Bft) 0 min
27.06.2014 00:38 22,6 C 13,6 C 14,0 C 61 % 0 % 1018 hPa 0,0 l/m 0,0 km/h (0 Bft) 0 min
27.06.2014 00:41 22,6 C 13,6 C 13,8 C 61 % 0 % 1018 hPa 0,0 l/m 0,0 km/h (0 Bft) 0 min
27.06.2014 00:44 22,6 C 13,6 C 13,7 C 61 % 0 % 1018 hPa 0,0 l/m 0,0 km/h (0 Bft) 0 min
27.06.2014 00:47 22,6 C 13,5 C 13,6 C 61 % 0 % 1018 hPa 0,0 l/m 0,0 km/h (0 Bft) 0 min
27.06.2014 00:50 22,6 C 13,4 C 13,3 C 62 % 0 % 1018 hPa 0,0 l/m 0,0 km/h (0 Bft) 0 min
27.06.2014 00:56 22,6 C 13,4 C 13,3 C 62 % 0 % 1018 hPa 0,0 l/m 0,0 km/h (0 Bft) 0 min
27.06.2014 00:59 22,6 C 13,3 C 13,2 C 62 % 0 % 1018 hPa 0,0 l/m 0,0 km/h (0 Bft) 0 min
27.06.2014 01:02 22,6 C 13,3 C 13,1 C 62 % 0 % 1018 hPa 0,0 l/m 0,0 km/h (0 Bft) 0 min
27.06.2014 01:05 22,6 C 13,2 C 13,5 C 63 % 0 % 1018 hPa 0,0 l/m 0,0 km/h (0 Bft) 0 min
27.06.2014 01:08 22,6 C 13,2 C 13,5 C 63 % 0 % 1018 hPa 0,0 l/m 0,0 km/h (0 Bft) 0 min
27.06.2014 01:11 22,6 C 13,2 C 12,7 C 63 % 0 % 1018 hPa 0,0 l/m 0,0 km/h (0 Bft) 0 min
27.06.2014 01:14 22,6 C 13,2 C 13,4 C 63 % 0 % 1018 hPa 0,0 l/m 0,0 km/h (0 Bft) 0 min
27.06.2014 01:17 22,6 C 13,1 C 13,4 C 63 % 0 % 1018 hPa 0,0 l/m 0,0 km/h (0 Bft) 0 min
27.06.2014 01:20 22,6 C 13,0 C 13,1 C 63 % 0 % 1018 hPa 0,0 l/m 0,0 km/h (0 Bft) 0 min
27.06.2014 01:23 22,6 C 12,9 C 13,3 C 64 % 0 % 1018 hPa 0,0 l/m 0,0 km/h (0 Bft) 0 min
27.06.2014 01:26 22,6 C 12,9 C 13,3 C 64 % 0 % 1018 hPa 0,0 l/m 0,0 km/h (0 Bft) 0 min
27.06.2014 01:29 22,6 C 12,9 C 13,3 C 64 % 0 % 1018 hPa 0,0 l/m 0,0 km/h (0 Bft) 0 min
27.06.2014 01:32 22,6 C 12,9 C 13,2 C 64 % 0 % 1018 hPa 0,0 l/m 0,0 km/h (0 Bft) 0 min
27.06.2014 01:35 22,6 C 12,8 C 13,3 C 64 % 0 % 1018 hPa 0,0 l/m 0,0 km/h (0 Bft) 0 min
27.06.2014 01:38 22,6 C 12,8 C 13,2 C 64 % 0 % 1018 hPa 0,0 l/m 0,0 km/h (0 Bft) 0 min
27.06.2014 01:41 22,6 C 12,8 C 12,8 C 65 % 0 % 1018 hPa 0,0 l/m 0,0 km/h (0 Bft) 0 min
27.06.2014 01:44 22,6 C 12,6 C 12,3 C 67 % 0 % 1018 hPa 0,0 l/m 0,0 km/h (0 Bft) 0 min
27.06.2014 01:47 22,6 C 12,6 C 13,0 C 66 % 0 % 1018 hPa 0,0 l/m 0,0 km/h (0 Bft) 0 min
27.06.2014 01:50 22,6 C 12,6 C 13,0 C 66 % 0 % 1018 hPa 0,0 l/m 0,0 km/h (0 Bft) 0 min
27.06.2014 01:56 22,6 C 12,5 C 13,0 C 66 % 0 % 1018 hPa 0,0 l/m 0,0 km/h (0 Bft) 0 min
27.06.2014 01:59 22,6 C 12,5 C 12,9 C 66 % 0 % 1018 hPa 0,0 l/m 0,0 km/h (0 Bft) 0 min
27.06.2014 02:02 22,6 C 12,4 C 12,8 C 66 % 0 % 1018 hPa 0,0 l/m 0,0 km/h (0 Bft) 0 min
27.06.2014 02:05 22,6 C 12,2 C 12,6 C 66 % 0 % 1018 hPa 0,0 l/m 0,0 km/h (0 Bft) 0 min
27.06.2014 02:08 22,6 C 12,2 C 12,6 C 67 % 0 % 1018 hPa 0,0 l/m 0,0 km/h (0 Bft) 0 min
27.06.2014 02:11 22,6 C 12,2 C 12,6 C 67 % 0 % 1018 hPa 0,0 l/m 0,0 km/h (0 Bft) 0 min
27.06.2014 02:14 22,6 C 12,2 C 12,1 C 67 % 0 % 1018 hPa 0,0 l/m 0,0 km/h (0 Bft) 0 min
27.06.2014 02:17 22,6 C 12,1 C 11,8 C 68 % 0 % 1018 hPa 0,0 l/m 0,0 km/h (0 Bft) 0 min
27.06.2014 02:20 22,6 C 12,1 C 11,8 C 68 % 0 % 1018 hPa 0,0 l/m 0,0 km/h (0 Bft) 0 min
27.06.2014 02:23 22,5 C 12,0 C 12,5 C 68 % 0 % 1018 hPa 0,0 l/m 0,0 km/h (0 Bft) 0 min
27.06.2014 02:26 22,5 C 12,0 C 12,0 C 68 % 0 % 1018 hPa 0,0 l/m 0,0 km/h (0 Bft) 0 min
27.06.2014 02:29 22,5 C 12,0 C 11,7 C 68 % 0 % 1018 hPa 0,0 l/m 0,0 km/h (0 Bft) 0 min
27.06.2014 02:32 22,5 C 11,9 C 11,9 C 69 % 0 % 1018 hPa 0,0 l/m 0,0 km/h (0 Bft) 0 min
27.06.2014 02:35 22,5 C 11,9 C 11,5 C 69 % 0 % 1018 hPa 0,0 l/m 0,0 km/h (0 Bft) 0 min
27.06.2014 02:38 22,5 C 11,9 C 11,6 C 69 % 0 % 1018 hPa 0,0 l/m 0,0 km/h (0 Bft) 0 min
27.06.2014 02:41 22,5 C 11,8 C 11,7 C 69 % 0 % 1018 hPa 0,0 l/m 0,0 km/h (0 Bft) 0 min
27.06.2014 02:44 22,5 C 11,8 C 12,2 C 69 % 0 % 1018 hPa 0,0 l/m 0,0 km/h (0 Bft) 0 min
27.06.2014 02:47 22,5 C 11,7 C 12,2 C 69 % 0 % 1018 hPa 0,0 l/m 0,0 km/h (0 Bft) 0 min
27.06.2014 02:50 22,5 C 11,7 C 11,6 C 69 % 0 % 1018 hPa 0,0 l/m 0,0 km/h (0 Bft) 0 min
27.06.2014 02:54 22,5 C 11,7 C 12,1 C 69 % 0 % 1018 hPa 0,0 l/m 0,0 km/h (0 Bft) 0 min
27.06.2014 02:57 22,5 C 11,6 C 12,2 C 69 % 0 % 1018 hPa 0,0 l/m 0,0 km/h (0 Bft) 0 min
27.06.2014 03:00 22,5 C 11,6 C 12,0 C 69 % 0 % 1018 hPa 0,0 l/m 0,0 km/h (0 Bft) 0 min
27.06.2014 03:03 22,5 C 11,6 C 12,0 C 69 % 0 % 1018 hPa 0,0 l/m 0,0 km/h (0 Bft) 0 min
27.06.2014 03:06 22,5 C 11,6 C 12,0 C 69 % 0 % 1018 hPa 0,0 l/m 0,0 km/h (0 Bft) 0 min
27.06.2014 03:09 22,5 C 11,6 C 12,0 C 69 % 0 % 1018 hPa 0,0 l/m 0,0 km/h (0 Bft) 0 min
27.06.2014 03:12 22,5 C 11,6 C 12,0 C 69 % 0 % 1018 hPa 0,0 l/m 0,0 km/h (0 Bft) 0 min
27.06.2014 03:15 22,5 C 11,6 C 12,0 C 69 % 0 % 1018 hPa 0,0 l/m 0,0 km/h (0 Bft) 0 min
27.06.2014 03:18 22,5 C 11,6 C 12,0 C 69 % 0 % 1018 hPa 0,0 l/m 0,0 km/h (0 Bft) 0 min
27.06.2014 03:21 22,5 C 11,6 C 12,0 C 69 % 0 % 1018 hPa 0,0 l/m 0,0 km/h (0 Bft) 0 min
27.06.2014 03:24 22,5 C 11,6 C 12,0 C 69 % 0 % 1018 hPa 0,0 l/m 0,0 km/h (0 Bft) 0 min
27.06.2014 03:27 22,5 C 11,6 C 12,0 C 69 % 0 % 1018 hPa 0,0 l/m 0,0 km/h (0 Bft) 0 min
27.06.2014 03:30 22,5 C 11,6 C 12,0 C 69 % 0 % 1017 hPa 0,0 l/m 0,0 km/h (0 Bft) 0 min
27.06.2014 03:33 22,5 C 11,6 C 10,6 C 69 % 0 % 1017 hPa 0,0 l/m 0,0 km/h (0 Bft) 0 min
27.06.2014 03:36 22,4 C 11,6 C 10,5 C 69 % 0 % 1017 hPa 0,0 l/m 0,0 km/h (0 Bft) 0 min
27.06.2014 03:39 22,4 C 11,6 C 11,1 C 69 % 0 % 1018 hPa 0,0 l/m 0,0 km/h (0 Bft) 0 min
27.06.2014 03:42 22,4 C 11,6 C 11,6 C 69 % 0 % 1018 hPa 0,0 l/m 0,0 km/h (0 Bft) 0 min
27.06.2014 03:45 22,4 C 11,6 C 11,6 C 69 % 0 % 1018 hPa 0,0 l/m 0,0 km/h (0 Bft) 0 min
27.06.2014 03:48 22,4 C 11,6 C 11,4 C 69 % 0 % 1018 hPa 0,0 l/m 0,0 km/h (0 Bft) 0 min
27.06.2014 03:51 22,4 C 10,9 C 11,5 C 72 % 0 % 1018 hPa 0,0 l/m 0,0 km/h (0 Bft) 0 min
27.06.2014 03:54 22,4 C 10,9 C 11,6 C 72 % 0 % 1018 hPa 0,0 l/m 0,0 km/h (0 Bft) 0 min
27.06.2014 03:57 22,4 C 10,9 C 11,4 C 72 % 0 % 1018 hPa 0,0 l/m 0,0 km/h (0 Bft) 0 min
27.06.2014 04:00 22,4 C 10,8 C 11,4 C 72 % 0 % 1018 hPa 0,0 l/m 0,0 km/h (0 Bft) 0 min
27.06.2014 04:03 22,4 C 10,8 C 11,6 C 72 % 0 % 1018 hPa 0,0 l/m 0,0 km/h (0 Bft) 0 min
27.06.2014 04:06 22,4 C 10,7 C 11,6 C 73 % 0 % 1018 hPa 0,0 l/m 0,0 km/h (0 Bft) 0 min
27.06.2014 04:09 22,4 C 10,7 C 11,2 C 74 % 0 % 1018 hPa 0,0 l/m 0,0 km/h (0 Bft) 0 min
27.06.2014 04:12 22,4 C 10,7 C 11,6 C 74 % 0 % 1018 hPa 0,0 l/m 0,0 km/h (0 Bft) 0 min
27.06.2014 04:15 22,4 C 10,6 C 11,5 C 75 % 0 % 1018 hPa 0,0 l/m 0,0 km/h (0 Bft) 0 min
27.06.2014 04:18 22,4 C 10,5 C 11,3 C 75 % 0 % 1018 hPa 0,0 l/m 0,0 km/h (0 Bft) 0 min
27.06.2014 04:21 22,4 C 10,5 C 11,3 C 75 % 0 % 1018 hPa 0,0 l/m 0,0 km/h (0 Bft) 0 min
27.06.2014 04:24 22,4 C 10,5 C 11,4 C 75 % 0 % 1018 hPa 0,0 l/m 0,0 km/h (0 Bft) 0 min
27.06.2014 04:27 22,4 C 10,5 C 11,5 C 75 % 0 % 1018 hPa 0,0 l/m 0,0 km/h (0 Bft) 0 min
27.06.2014 04:30 22,4 C 10,5 C 11,4 C 75 % 0 % 1018 hPa 0,0 l/m 0,0 km/h (0 Bft) 0 min
27.06.2014 04:33 22,4 C 10,5 C 11,3 C 75 % 0 % 1018 hPa 0,0 l/m 0,0 km/h (0 Bft) 0 min
27.06.2014 04:36 22,4 C 10,5 C 10,5 C 75 % 0 % 1018 hPa 0,0 l/m 0,0 km/h (0 Bft) 0 min
27.06.2014 04:39 22,4 C 10,4 C 10,4 C 74 % 0 % 1018 hPa 0,0 l/m 0,0 km/h (0 Bft) 0 min
27.06.2014 04:42 22,4 C 10,4 C 10,9 C 75 % 0 % 1018 hPa 0,0 l/m 0,0 km/h (0 Bft) 0 min
27.06.2014 04:45 22,4 C 10,4 C 11,1 C 75 % 0 % 1018 hPa 0,0 l/m 0,0 km/h (0 Bft) 0 min
27.06.2014 04:48 22,4 C 10,4 C 11,1 C 75 % 0 % 1018 hPa 0,0 l/m 0,0 km/h (0 Bft) 0 min
27.06.2014 04:51 22,4 C 10,4 C 11,1 C 75 % 0 % 1018 hPa 0,0 l/m 0,0 km/h (0 Bft) 0 min
27.06.2014 04:54 22,4 C 10,4 C 10,9 C 74 % 0 % 1018 hPa 0,0 l/m 0,0 km/h (0 Bft) 0 min
27.06.2014 04:57 22,4 C 10,3 C 11,1 C 74 % 1 % 1018 hPa 0,0 l/m 0,0 km/h (0 Bft) 0 min
27.06.2014 05:00 22,4 C 10,2 C 10,6 C 74 % 1 % 1018 hPa 0,0 l/m 0,0 km/h (0 Bft) 0 min
27.06.2014 05:03 22,4 C 10,2 C 10,9 C 74 % 1 % 1018 hPa 0,0 l/m 0,0 km/h (0 Bft) 0 min
27.06.2014 05:06 22,4 C 10,2 C 10,7 C 75 % 1 % 1018 hPa 0,0 l/m 0,0 km/h (0 Bft) 0 min
27.06.2014 05:09 22,4 C 10,2 C 10,7 C 75 % 1 % 1018 hPa 0,0 l/m 0,0 km/h (0 Bft) 0 min
27.06.2014 05:12 22,4 C 10,2 C 11,0 C 75 % 2 % 1018 hPa 0,0 l/m 0,0 km/h (0 Bft) 0 min
27.06.2014 05:15 22,3 C 10,2 C 11,0 C 75 % 2 % 1018 hPa 0,0 l/m 0,0 km/h (0 Bft) 0 min
27.06.2014 05:18 22,4 C 10,2 C 11,2 C 75 % 3 % 1018 hPa 0,0 l/m 0,0 km/h (0 Bft) 0 min
27.06.2014 05:21 22,4 C 10,1 C 11,1 C 76 % 3 % 1018 hPa 0,0 l/m 0,0 km/h (0 Bft) 3 min
27.06.2014 05:24 22,4 C 10,1 C 11,2 C 76 % 3 % 1018 hPa 0,0 l/m 0,0 km/h (0 Bft) 3 min
27.06.2014 05:27 22,3 C 10,1 C 11,1 C 77 % 4 % 1018 hPa 0,0 l/m 0,0 km/h (0 Bft) 3 min
27.06.2014 05:30 22,3 C 10,2 C 11,3 C 77 % 5 % 1018 hPa 0,0 l/m 0,0 km/h (0 Bft) 3 min
27.06.2014 05:33 22,3 C 10,2 C 11,6 C 77 % 5 % 1018 hPa 0,0 l/m 0,0 km/h (0 Bft) 3 min
27.06.2014 05:36 22,4 C 10,2 C 11,5 C 78 % 5 % 1018 hPa 0,0 l/m 0,0 km/h (0 Bft) 3 min
27.06.2014 05:39 22,3 C 10,2 C 11,5 C 78 % 7 % 1018 hPa 0,0 l/m 0,0 km/h (0 Bft) 3 min
27.06.2014 05:42 22,3 C 10,2 C 11,5 C 78 % 7 % 1018 hPa 0,0 l/m 0,0 km/h (0 Bft) 3 min
27.06.2014 05:45 22,3 C 10,2 C 11,5 C 79 % 8 % 1018 hPa 0,0 l/m 0,0 km/h (0 Bft) 3 min
27.06.2014 05:48 22,3 C 10,2 C 11,6 C 79 % 9 % 1018 hPa 0,0 l/m 0,0 km/h (0 Bft) 3 min
27.06.2014 05:51 22,3 C 10,2 C 11,6 C 79 % 9 % 1018 hPa 0,0 l/m 0,0 km/h (0 Bft) 3 min
27.06.2014 05:54 22,3 C 10,3 C 11,5 C 79 % 9 % 1018 hPa 0,0 l/m 0,0 km/h (0 Bft) 3 min
27.06.2014 05:57 22,3 C 10,3 C 11,7 C 79 % 11 % 1018 hPa 0,0 l/m 0,0 km/h (0 Bft) 3 min
27.06.2014 06:00 22,3 C 10,3 C 12,0 C 78 % 12 % 1018 hPa 0,0 l/m 0,0 km/h (0 Bft) 3 min
27.06.2014 06:03 22,3 C 10,3 C 11,9 C 78 % 12 % 1019 hPa 0,0 l/m 0,0 km/h (0 Bft) 3 min
27.06.2014 06:06 22,3 C 10,4 C 11,8 C 78 % 13 % 1019 hPa 0,0 l/m 0,0 km/h (0 Bft) 3 min
27.06.2014 06:09 22,3 C 10,5 C 11,5 C 78 % 14 % 1019 hPa 0,0 l/m 0,0 km/h (0 Bft) 3 min
27.06.2014 06:12 22,3 C 10,6 C 11,6 C 78 % 15 % 1019 hPa 0,0 l/m 0,0 km/h (0 Bft) 3 min
27.06.2014 06:15 22,3 C 10,7 C 11,8 C 79 % 16 % 1018 hPa 0,0 l/m 0,0 km/h (0 Bft) 3 min
27.06.2014 06:18 22,3 C 10,8 C 12,0 C 79 % 17 % 1018 hPa 0,0 l/m 0,0 km/h (0 Bft) 3 min
27.06.2014 06:21 22,3 C 10,8 C 14,7 C 79 % 18 % 1018 hPa 0,0 l/m 0,0 km/h (0 Bft) 3 min
27.06.2014 06:24 22,3 C 10,9 C 18,3 C 80 % 19 % 1018 hPa 0,0 l/m 0,0 km/h (0 Bft) 3 min
27.06.2014 06:27 22,4 C 11,1 C 19,2 C 80 % 20 % 1018 hPa 0,0 l/m 0,0 km/h (0 Bft) 3 min
27.06.2014 06:30 22,4 C 11,2 C 19,3 C 79 % 20 % 1018 hPa 0,0 l/m 0,0 km/h (0 Bft) 3 min
27.06.2014 06:33 22,4 C 11,4 C 19,1 C 79 % 21 % 1018 hPa 0,0 l/m 0,0 km/h (0 Bft) 3 min
27.06.2014 06:36 22,4 C 11,5 C 20,5 C 78 % 24 % 1018 hPa 0,0 l/m 0,0 km/h (0 Bft) 3 min
27.06.2014 06:39 22,5 C 11,7 C 21,6 C 78 % 26 % 1018 hPa 0,0 l/m 0,0 km/h (0 Bft) 3 min
27.06.2014 06:42 22,5 C 11,9 C 21,4 C 78 % 26 % 1018 hPa 0,0 l/m 0,0 km/h (0 Bft) 3 min
27.06.2014 06:45 22,5 C 12,0 C 21,1 C 78 % 24 % 1018 hPa 0,0 l/m 0,0 km/h (0 Bft) 3 min
27.06.2014 06:48 22,5 C 12,1 C 19,3 C 78 % 22 % 1018 hPa 0,0 l/m 0,0 km/h (0 Bft) 3 min
27.06.2014 06:51 22,5 C 12,2 C 16,0 C 77 % 21 % 1018 hPa 0,0 l/m 0,0 km/h (0 Bft) 3 min
27.06.2014 06:54 22,5 C 12,2 C 14,7 C 77 % 20 % 1018 hPa 0,0 l/m 0,0 km/h (0 Bft) 3 min
27.06.2014 06:57 22,5 C 12,2 C 14,4 C 76 % 19 % 1018 hPa 0,0 l/m 0,0 km/h (0 Bft) 3 min
27.06.2014 07:00 22,6 C 12,2 C 14,6 C 76 % 21 % 1018 hPa 0,0 l/m 0,0 km/h (0 Bft) 3 min
27.06.2014 07:03 22,5 C 12,2 C 14,3 C 76 % 22 % 1018 hPa 0,0 l/m 0,0 km/h (0 Bft) 3 min
27.06.2014 07:06 22,5 C 12,3 C 15,0 C 76 % 23 % 1018 hPa 0,0 l/m 0,0 km/h (0 Bft) 3 min
27.06.2014 07:09 22,4 C 12,3 C 19,0 C 76 % 23 % 1018 hPa 0,0 l/m 0,0 km/h (0 Bft) 3 min
27.06.2014 07:12 22,3 C 12,5 C 21,9 C 76 % 40 % 1018 hPa 0,0 l/m 0,0 km/h (0 Bft) 3 min
27.06.2014 07:15 22,1 C 12,6 C 21,4 C 76 % 38 % 1018 hPa 0,0 l/m 0,0 km/h (0 Bft) 3 min
27.06.2014 07:18 22,0 C 12,8 C 21,8 C 75 % 42 % 1018 hPa 0,0 l/m 0,0 km/h (0 Bft) 3 min
27.06.2014 07:21 22,1 C 12,9 C 17,6 C 75 % 42 % 1018 hPa 0,0 l/m 0,0 km/h (0 Bft) 3 min
27.06.2014 07:24 22,1 C 13,1 C 15,2 C 74 % 42 % 1018 hPa 0,0 l/m 0,0 km/h (0 Bft) 3 min
27.06.2014 07:27 22,2 C 13,2 C 15,0 C 73 % 41 % 1018 hPa 0,0 l/m 0,0 km/h (0 Bft) 3 min
27.06.2014 07:30 22,2 C 13,3 C 14,8 C 73 % 42 % 1019 hPa 0,0 l/m 0,0 km/h (0 Bft) 3 min
27.06.2014 07:33 22,3 C 13,5 C 15,0 C 73 % 42 % 1019 hPa 0,0 l/m 0,0 km/h (0 Bft) 3 min
27.06.2014 07:36 22,3 C 13,5 C 14,8 C 73 % 44 % 1019 hPa 0,0 l/m 0,0 km/h (0 Bft) 3 min
27.06.2014 07:39 22,3 C 13,8 C 15,2 C 73 % 44 % 1019 hPa 0,0 l/m 0,0 km/h (0 Bft) 3 min
27.06.2014 07:42 22,3 C 14,0 C 15,1 C 72 % 44 % 1019 hPa 0,0 l/m 0,0 km/h (0 Bft) 3 min
27.06.2014 07:45 22,3 C 14,2 C 15,4 C 72 % 44 % 1019 hPa 0,0 l/m 0,0 km/h (0 Bft) 3 min
27.06.2014 07:48 22,3 C 14,4 C 15,5 C 71 % 50 % 1019 hPa 0,0 l/m 0,0 km/h (0 Bft) 3 min
27.06.2014 07:51 22,3 C 14,6 C 15,5 C 71 % 48 % 1019 hPa 0,0 l/m 0,0 km/h (0 Bft) 3 min
27.06.2014 07:54 22,4 C 14,8 C 15,8 C 71 % 50 % 1019 hPa 0,0 l/m 0,1 km/h (0 Bft) 3 min
27.06.2014 07:57 22,4 C 15,0 C 15,9 C 70 % 54 % 1019 hPa 0,0 l/m 0,1 km/h (0 Bft) 3 min
27.06.2014 08:00 22,2 C 15,2 C 16,4 C 70 % 56 % 1019 hPa 0,0 l/m 0,3 km/h (0 Bft) 3 min
27.06.2014 08:03 22,0 C 15,5 C 16,0 C 69 % 52 % 1019 hPa 0,0 l/m 3,0 km/h (1 Bft) 3 min
27.06.2014 08:06 21,8 C 15,6 C 15,7 C 67 % 52 % 1019 hPa 0,0 l/m 0,1 km/h (0 Bft) 3 min
27.06.2014 08:09 21,6 C 15,6 C 16,1 C 67 % 61 % 1019 hPa 0,0 l/m 0,2 km/h (0 Bft) 3 min
27.06.2014 08:12 21,4 C 15,8 C 16,1 C 67 % 61 % 1019 hPa 0,0 l/m 0,3 km/h (0 Bft) 3 min
27.06.2014 08:15 21,3 C 15,8 C 16,3 C 67 % 78 % 1019 hPa 0,0 l/m 2,7 km/h (1 Bft) 3 min
27.06.2014 08:18 21,3 C 16,3 C 16,4 C 66 % 75 % 1019 hPa 0,0 l/m 0,3 km/h (0 Bft) 3 min
27.06.2014 08:21 21,2 C 16,6 C 16,8 C 66 % 75 % 1019 hPa 0,0 l/m 2,1 km/h (1 Bft) 3 min
27.06.2014 08:24 21,3 C 16,8 C 16,7 C 64 % 70 % 1019 hPa 0,0 l/m 0,7 km/h (0 Bft) 3 min
27.06.2014 08:27 21,3 C 17,0 C 16,8 C 62 % 67 % 1019 hPa 0,0 l/m 4,3 km/h (1 Bft) 3 min
27.06.2014 08:30 21,3 C 17,1 C 17,0 C 62 % 67 % 1019 hPa 0,0 l/m 5,7 km/h (1 Bft) 3 min
27.06.2014 08:33 21,3 C 17,3 C 17,1 C 61 % 67 % 1019 hPa 0,0 l/m 6,2 km/h (2 Bft) 3 min
27.06.2014 08:36 21,3 C 17,5 C 17,3 C 60 % 86 % 1019 hPa 0,0 l/m 1,0 km/h (0 Bft) 3 min
27.06.2014 08:39 21,3 C 17,5 C 17,4 C 58 % 86 % 1019 hPa 0,0 l/m 3,9 km/h (1 Bft) 3 min
27.06.2014 08:42 21,3 C 17,3 C 17,2 C 59 % 51 % 1019 hPa 0,0 l/m 7,0 km/h (2 Bft) 3 min
27.06.2014 08:45 21,2 C 17,2 C 17,2 C 60 % 51 % 1019 hPa 0,0 l/m 0,4 km/h (0 Bft) 3 min
27.06.2014 08:48 21,2 C 17,1 C 17,1 C 61 % 47 % 1019 hPa 0,0 l/m 3,9 km/h (1 Bft) 3 min
27.06.2014 08:51 21,2 C 17,0 C 17,1 C 61 % 45 % 1019 hPa 0,0 l/m 4,4 km/h (1 Bft) 3 min
27.06.2014 08:54 21,0 C 17,0 C 17,1 C 62 % 45 % 1019 hPa 0,0 l/m 0,1 km/h (0 Bft) 3 min
27.06.2014 08:57 21,0 C 17,2 C 17,5 C 61 % 80 % 1019 hPa 0,0 l/m 4,8 km/h (1 Bft) 3 min
27.06.2014 09:00 21,2 C 17,6 C 17,6 C 60 % 81 % 1019 hPa 0,0 l/m 1,5 km/h (1 Bft) 3 min
27.06.2014 09:03 21,4 C 17,9 C 17,7 C 60 % 81 % 1019 hPa 0,0 l/m 0,7 km/h (0 Bft) 3 min
27.06.2014 09:06 21,6 C 18,2 C 18,1 C 60 % 81 % 1019 hPa 0,0 l/m 4,9 km/h (1 Bft) 3 min
27.06.2014 09:09 21,6 C 18,4 C 18,5 C 58 % 90 % 1019 hPa 0,0 l/m 4,3 km/h (1 Bft) 3 min
27.06.2014 09:12 21,7 C 18,6 C 18,6 C 56 % 90 % 1019 hPa 0,0 l/m 5,5 km/h (1 Bft) 3 min
27.06.2014 09:15 21,8 C 18,6 C 18,7 C 56 % 90 % 1019 hPa 0,0 l/m 5,2 km/h (1 Bft) 3 min
27.06.2014 09:18 21,8 C 18,7 C 18,8 C 56 % 70 % 1019 hPa 0,0 l/m 6,5 km/h (2 Bft) 3 min
27.06.2014 09:21 21,8 C 18,7 C 18,7 C 57 % 70 % 1019 hPa 0,0 l/m 5,3 km/h (1 Bft) 3 min
27.06.2014 09:24 21,8 C 18,7 C 18,4 C 57 % 64 % 1019 hPa 0,0 l/m 1,6 km/h (1 Bft) 3 min
27.06.2014 09:27 21,8 C 18,5 C 19,0 C 56 % 61 % 1019 hPa 0,0 l/m 1,3 km/h (1 Bft) 3 min
27.06.2014 09:30 22,0 C 18,5 C 19,0 C 57 % 58 % 1019 hPa 0,0 l/m 6,7 km/h (2 Bft) 3 min
27.06.2014 09:33 22,0 C 18,5 C 18,8 C 57 % 58 % 1019 hPa 0,0 l/m 4,9 km/h (1 Bft) 3 min
27.06.2014 09:36 21,9 C 18,4 C 18,8 C 58 % 54 % 1019 hPa 0,0 l/m 4,8 km/h (1 Bft) 3 min
27.06.2014 09:39 22,0 C 18,4 C 18,8 C 58 % 54 % 1019 hPa 0,0 l/m 3,0 km/h (1 Bft) 3 min
27.06.2014 09:42 22,0 C 18,4 C 18,6 C 58 % 54 % 1019 hPa 0,0 l/m 4,0 km/h (1 Bft) 3 min
27.06.2014 09:45 22,0 C 18,4 C 18,5 C 57 % 54 % 1019 hPa 0,0 l/m 6,9 km/h (2 Bft) 3 min
27.06.2014 09:48 22,0 C 18,3 C 18,3 C 58 % 48 % 1019 hPa 0,0 l/m 4,7 km/h (1 Bft) 0 min
27.06.2014 09:51 22,1 C 18,3 C 18,2 C 58 % 49 % 1019 hPa 0,0 l/m 4,3 km/h (1 Bft) 0 min
27.06.2014 09:54 22,1 C 18,3 C 18,2 C 59 % 49 % 1019 hPa 0,0 l/m 2,7 km/h (1 Bft) 0 min
27.06.2014 09:57 22,1 C 18,5 C 19,1 C 60 % 49 % 1019 hPa 0,0 l/m 4,5 km/h (1 Bft) 0 min
27.06.2014 10:00 22,2 C 18,7 C 19,1 C 59 % 72 % 1019 hPa 0,0 l/m 4,5 km/h (1 Bft) 3 min
27.06.2014 10:03 22,2 C 18,8 C 18,8 C 59 % 72 % 1019 hPa 0,0 l/m 4,5 km/h (1 Bft) 3 min
27.06.2014 10:06 22,2 C 18,9 C 19,5 C 59 % 72 % 1019 hPa 0,0 l/m 4,5 km/h (1 Bft) 3 min
27.06.2014 10:09 22,2 C 19,4 C 19,3 C 59 % 72 % 1019 hPa 0,0 l/m 1,0 km/h (0 Bft) 3 min
27.06.2014 10:12 22,2 C 19,7 C 19,4 C 56 % 72 % 1019 hPa 0,0 l/m 5,7 km/h (1 Bft) 3 min
27.06.2014 10:15 22,2 C 19,8 C 19,3 C 53 % 72 % 1019 hPa 0,0 l/m 6,1 km/h (2 Bft) 3 min
27.06.2014 10:18 22,2 C 19,7 C 19,2 C 53 % 68 % 1019 hPa 0,0 l/m 3,6 km/h (1 Bft) 3 min
27.06.2014 10:21 22,2 C 19,7 C 19,4 C 54 % 67 % 1019 hPa 0,0 l/m 3,9 km/h (1 Bft) 3 min
27.06.2014 10:24 22,3 C 19,8 C 19,5 C 55 % 67 % 1019 hPa 0,0 l/m 3,2 km/h (1 Bft) 3 min
27.06.2014 10:27 22,3 C 20,0 C 20,0 C 55 % 67 % 1019 hPa 0,0 l/m 4,1 km/h (1 Bft) 3 min
27.06.2014 10:30 22,3 C 20,3 C 19,8 C 56 % 67 % 1019 hPa 0,0 l/m 5,1 km/h (1 Bft) 3 min
27.06.2014 10:33 22,3 C 20,4 C 20,2 C 54 % 67 % 1019 hPa 0,0 l/m 8,3 km/h (2 Bft) 3 min
27.06.2014 10:36 22,3 C 20,5 C 20,1 C 53 % 67 % 1019 hPa 0,0 l/m 6,1 km/h (2 Bft) 3 min
27.06.2014 10:39 22,3 C 20,6 C 19,8 C 53 % 67 % 1019 hPa 0,0 l/m 7,0 km/h (2 Bft) 3 min
27.06.2014 10:42 22,3 C 20,7 C 20,0 C 54 % 67 % 1019 hPa 0,0 l/m 7,4 km/h (2 Bft) 3 min
27.06.2014 10:45 22,3 C 20,8 C 19,7 C 51 % 67 % 1019 hPa 0,0 l/m 6,8 km/h (2 Bft) 3 min
27.06.2014 10:48 22,3 C 20,7 C 20,2 C 52 % 67 % 1019 hPa 0,0 l/m 6,1 km/h (2 Bft) 3 min
27.06.2014 10:51 22,3 C 20,7 C 19,7 C 51 % 67 % 1019 hPa 0,0 l/m 2,5 km/h (1 Bft) 3 min
27.06.2014 10:54 22,2 C 20,8 C 20,3 C 53 % 100 % 1019 hPa 0,0 l/m 2,4 km/h (1 Bft) 3 min
27.06.2014 10:57 22,3 C 20,9 C 20,2 C 53 % 100 % 1019 hPa 0,0 l/m 6,1 km/h (2 Bft) 3 min
27.06.2014 11:00 22,3 C 21,1 C 20,5 C 53 % 100 % 1019 hPa 0,0 l/m 5,9 km/h (2 Bft) 3 min
27.06.2014 11:03 22,3 C 21,2 C 20,4 C 53 % 100 % 1019 hPa 0,0 l/m 5,8 km/h (2 Bft) 3 min
27.06.2014 11:06 22,3 C 21,4 C 20,5 C 52 % 100 % 1019 hPa 0,0 l/m 5,4 km/h (1 Bft) 3 min
27.06.2014 11:09 22,3 C 21,4 C 20,5 C 51 % 100 % 1019 hPa 0,0 l/m 1,2 km/h (1 Bft) 3 min
27.06.2014 11:12 22,3 C 21,5 C 20,5 C 52 % 100 % 1019 hPa 0,0 l/m 1,3 km/h (1 Bft) 3 min
27.06.2014 11:15 22,3 C 21,5 C 21,0 C 52 % 100 % 1019 hPa 0,0 l/m 7,1 km/h (2 Bft) 3 min
27.06.2014 11:18 22,3 C 22,0 C 20,9 C 51 % 100 % 1019 hPa 0,0 l/m 4,9 km/h (1 Bft) 3 min
27.06.2014 11:21 22,3 C 22,1 C 21,3 C 49 % 100 % 1019 hPa 0,0 l/m 3,0 km/h (1 Bft) 3 min
27.06.2014 11:24 22,3 C 22,0 C 21,3 C 49 % 100 % 1019 hPa 0,0 l/m 3,0 km/h (1 Bft) 3 min
27.06.2014 11:27 22,3 C 22,2 C 21,1 C 49 % 100 % 1019 hPa 0,0 l/m 4,6 km/h (1 Bft) 3 min
27.06.2014 11:30 22,3 C 22,3 C 21,5 C 48 % 100 % 1019 hPa 0,0 l/m 7,7 km/h (2 Bft) 3 min
27.06.2014 11:33 22,3 C 22,4 C 21,7 C 47 % 100 % 1019 hPa 0,0 l/m 5,6 km/h (1 Bft) 3 min
27.06.2014 11:36 22,3 C 22,5 C 21,5 C 47 % 100 % 1019 hPa 0,0 l/m 6,9 km/h (2 Bft) 3 min
27.06.2014 11:39 22,3 C 22,7 C 21,5 C 47 % 100 % 1019 hPa 0,0 l/m 3,1 km/h (1 Bft) 3 min
27.06.2014 11:42 22,3 C 22,8 C 22,0 C 46 % 100 % 1019 hPa 0,0 l/m 4,5 km/h (1 Bft) 3 min
27.06.2014 11:45 22,3 C 22,7 C 21,4 C 46 % 100 % 1019 hPa 0,0 l/m 1,3 km/h (1 Bft) 3 min
27.06.2014 11:48 22,3 C 22,7 C 21,6 C 45 % 100 % 1019 hPa 0,0 l/m 6,1 km/h (2 Bft) 3 min
27.06.2014 11:51 22,3 C 22,7 C 22,0 C 46 % 100 % 1019 hPa 0,0 l/m 6,1 km/h (2 Bft) 3 min
27.06.2014 11:54 22,3 C 22,8 C 22,1 C 46 % 100 % 1019 hPa 0,0 l/m 6,9 km/h (2 Bft) 3 min
27.06.2014 11:57 22,3 C 23,0 C 22,1 C 46 % 100 % 1019 hPa 0,0 l/m 5,7 km/h (1 Bft) 3 min
27.06.2014 12:00 22,3 C 23,1 C 22,0 C 44 % 100 % 1019 hPa 0,0 l/m 4,5 km/h (1 Bft) 3 min
27.06.2014 12:03 22,3 C 23,1 C 22,2 C 45 % 100 % 1019 hPa 0,0 l/m 6,5 km/h (2 Bft) 3 min
27.06.2014 12:06 22,4 C 23,2 C 22,5 C 44 % 100 % 1019 hPa 0,0 l/m 3,4 km/h (1 Bft) 3 min
27.06.2014 12:09 22,4 C 23,4 C 22,5 C 46 % 100 % 1019 hPa 0,0 l/m 0,2 km/h (0 Bft) 3 min
27.06.2014 12:12 22,4 C 23,4 C 22,3 C 46 % 100 % 1019 hPa 0,0 l/m 5,0 km/h (1 Bft) 3 min
27.06.2014 12:15 22,4 C 23,4 C 22,6 C 46 % 100 % 1019 hPa 0,0 l/m 4,8 km/h (1 Bft) 3 min
27.06.2014 12:18 22,4 C 23,6 C 22,8 C 44 % 100 % 1019 hPa 0,0 l/m 2,0 km/h (1 Bft) 3 min
27.06.2014 12:21 22,4 C 23,7 C 22,8 C 45 % 100 % 1019 hPa 0,0 l/m 0,3 km/h (0 Bft) 3 min
27.06.2014 12:24 22,4 C 24,0 C 22,8 C 45 % 100 % 1019 hPa 0,0 l/m 0,4 km/h (0 Bft) 3 min
27.06.2014 12:27 22,4 C 23,9 C 22,0 C 43 % 100 % 1019 hPa 0,0 l/m 5,0 km/h (1 Bft) 3 min
27.06.2014 12:30 22,4 C 23,8 C 22,4 C 46 % 50 % 1019 hPa 0,0 l/m 0,0 km/h (0 Bft) 0 min
27.06.2014 12:33 22,5 C 23,8 C 22,5 C 46 % 50 % 1019 hPa 0,0 l/m 0,0 km/h (0 Bft) 0 min
27.06.2014 12:36 22,5 C 23,7 C 22,7 C 45 % 48 % 1019 hPa 0,0 l/m 0,6 km/h (0 Bft) 0 min
27.06.2014 12:39 22,5 C 23,6 C 22,2 C 44 % 48 % 1019 hPa 0,0 l/m 6,4 km/h (2 Bft) 0 min
27.06.2014 12:42 22,5 C 23,4 C 22,2 C 45 % 48 % 1019 hPa 0,0 l/m 6,4 km/h (2 Bft) 0 min
27.06.2014 12:45 22,6 C 23,5 C 22,8 C 45 % 48 % 1019 hPa 0,0 l/m 0,4 km/h (0 Bft) 0 min
27.06.2014 12:48 22,5 C 23,7 C 23,1 C 44 % 48 % 1019 hPa 0,0 l/m 0,3 km/h (0 Bft) 0 min
27.06.2014 12:51 22,5 C 23,9 C 23,0 C 44 % 48 % 1019 hPa 0,0 l/m 1,0 km/h (0 Bft) 0 min
27.06.2014 12:54 22,5 C 24,1 C 23,2 C 42 % 48 % 1019 hPa 0,0 l/m 1,3 km/h (1 Bft) 0 min
27.06.2014 12:57 22,6 C 24,2 C 24,0 C 43 % 48 % 1019 hPa 0,0 l/m 5,6 km/h (1 Bft) 0 min
27.06.2014 13:00 22,6 C 24,2 C 23,6 C 43 % 48 % 1019 hPa 0,0 l/m 2,9 km/h (1 Bft) 0 min
27.06.2014 13:03 22,6 C 24,3 C 23,6 C 43 % 48 % 1019 hPa 0,0 l/m 0,0 km/h (0 Bft) 0 min
27.06.2014 13:06 22,6 C 24,3 C 23,7 C 43 % 48 % 1019 hPa 0,0 l/m 0,2 km/h (0 Bft) 0 min
27.06.2014 13:09 22,6 C 24,8 C 23,3 C 44 % 48 % 1019 hPa 0,0 l/m 0,0 km/h (0 Bft) 0 min
27.06.2014 13:12 22,6 C 24,9 C 23,3 C 42 % 48 % 1019 hPa 0,0 l/m 0,0 km/h (0 Bft) 0 min
27.06.2014 13:15 22,6 C 25,0 C 23,7 C 43 % 48 % 1019 hPa 0,0 l/m 0,0 km/h (0 Bft) 0 min
27.06.2014 13:18 22,6 C 25,0 C 23,9 C 43 % 48 % 1019 hPa 0,0 l/m 0,0 km/h (0 Bft) 0 min
27.06.2014 13:21 22,6 C 25,1 C 23,4 C 39 % 49 % 1019 hPa 0,0 l/m 0,3 km/h (0 Bft) 0 min
27.06.2014 13:24 22,6 C 24,9 C 22,9 C 40 % 49 % 1019 hPa 0,0 l/m 0,0 km/h (0 Bft) 0 min
27.06.2014 13:27 22,6 C 24,6 C 23,4 C 38 % 49 % 1018 hPa 0,0 l/m 0,3 km/h (0 Bft) 0 min
27.06.2014 13:30 22,7 C 24,8 C 23,8 C 40 % 49 % 1018 hPa 0,0 l/m 0,7 km/h (0 Bft) 0 min
27.06.2014 13:33 22,7 C 25,0 C 23,8 C 38 % 49 % 1018 hPa 0,0 l/m 0,6 km/h (0 Bft) 0 min
27.06.2014 13:36 22,7 C 25,0 C 24,2 C 35 % 49 % 1018 hPa 0,0 l/m 4,0 km/h (1 Bft) 0 min
27.06.2014 13:39 22,7 C 25,0 C 24,2 C 35 % 49 % 1018 hPa 0,0 l/m 0,1 km/h (0 Bft) 0 min
27.06.2014 13:42 22,7 C 25,0 C 24,3 C 37 % 49 % 1018 hPa 0,0 l/m 0,0 km/h (0 Bft) 0 min
27.06.2014 13:45 22,7 C 25,2 C 24,1 C 37 % 49 % 1018 hPa 0,0 l/m 0,3 km/h (0 Bft) 0 min
27.06.2014 13:48 22,7 C 25,1 C 23,7 C 36 % 49 % 1018 hPa 0,0 l/m 0,7 km/h (0 Bft) 0 min
27.06.2014 13:51 22,7 C 25,1 C 23,9 C 37 % 69 % 1018 hPa 0,0 l/m 0,0 km/h (0 Bft) 3 min
27.06.2014 13:54 22,7 C 25,1 C 23,9 C 36 % 69 % 1018 hPa 0,0 l/m 0,1 km/h (0 Bft) 3 min
27.06.2014 13:57 22,7 C 24,9 C 23,3 C 35 % 69 % 1018 hPa 0,0 l/m 0,4 km/h (0 Bft) 3 min
27.06.2014 14:00 22,7 C 24,8 C 23,7 C 35 % 69 % 1018 hPa 0,0 l/m 0,0 km/h (0 Bft) 3 min
27.06.2014 14:03 22,8 C 25,1 C 24,5 C 37 % 69 % 1018 hPa 0,0 l/m 0,0 km/h (0 Bft) 3 min
27.06.2014 14:06 22,8 C 25,4 C 24,8 C 38 % 69 % 1018 hPa 0,0 l/m 0,0 km/h (0 Bft) 3 min
27.06.2014 14:09 22,8 C 25,8 C 25,0 C 34 % 69 % 1018 hPa 0,0 l/m 0,3 km/h (0 Bft) 3 min
27.06.2014 14:12 22,8 C 26,0 C 24,8 C 30 % 69 % 1018 hPa 0,0 l/m 3,7 km/h (1 Bft) 3 min
27.06.2014 14:15 22,8 C 26,0 C 24,7 C 27 % 69 % 1018 hPa 0,0 l/m 0,3 km/h (0 Bft) 3 min
27.06.2014 14:18 22,8 C 26,2 C 25,2 C 25 % 69 % 1018 hPa 0,0 l/m 1,8 km/h (1 Bft) 3 min
27.06.2014 14:21 22,8 C 26,2 C 25,2 C 24 % 69 % 1018 hPa 0,0 l/m 7,3 km/h (2 Bft) 3 min
27.06.2014 14:24 22,8 C 26,3 C 25,0 C 21 % 69 % 1018 hPa 0,0 l/m 1,3 km/h (1 Bft) 3 min
27.06.2014 14:27 22,8 C 26,4 C 24,9 C 22 % 69 % 1018 hPa 0,0 l/m 0,0 km/h (0 Bft) 3 min
27.06.2014 14:30 22,8 C 26,4 C 25,6 C 23 % 69 % 1018 hPa 0,0 l/m 0,0 km/h (0 Bft) 3 min
27.06.2014 14:33 22,8 C 26,5 C 25,5 C 22 % 69 % 1018 hPa 0,0 l/m 0,3 km/h (0 Bft) 3 min
27.06.2014 14:36 22,8 C 26,7 C 25,5 C 22 % 69 % 1018 hPa 0,0 l/m 0,0 km/h (0 Bft) 3 min
27.06.2014 14:39 22,8 C 26,7 C 25,2 C 20 % 69 % 1018 hPa 0,0 l/m 0,0 km/h (0 Bft) 3 min
27.06.2014 14:42 22,8 C 26,7 C 25,4 C 20 % 69 % 1018 hPa 0,0 l/m 0,0 km/h (0 Bft) 3 min
27.06.2014 14:45 22,8 C 26,8 C 25,0 C 21 % 69 % 1018 hPa 0,0 l/m 0,0 km/h (0 Bft) 3 min
27.06.2014 14:48 22,8 C 26,8 C 24,8 C 21 % 69 % 1018 hPa 0,0 l/m 0,0 km/h (0 Bft) 3 min
27.06.2014 14:51 22,8 C 26,3 C 24,8 C 20 % 69 % 1018 hPa 0,0 l/m 0,0 km/h (0 Bft) 3 min
27.06.2014 14:54 22,8 C 25,9 C 24,2 C 20 % 69 % 1018 hPa 0,0 l/m 0,0 km/h (0 Bft) 3 min
27.06.2014 14:57 22,8 C 25,8 C 24,6 C 21 % 61 % 1018 hPa 0,0 l/m 0,0 km/h (0 Bft) 3 min
27.06.2014 15:00 22,8 C 26,0 C 25,1 C 21 % 61 % 1018 hPa 0,0 l/m 0,0 km/h (0 Bft) 3 min
27.06.2014 15:03 22,8 C 26,1 C 25,0 C 21 % 61 % 1018 hPa 0,0 l/m 0,0 km/h (0 Bft) 3 min
27.06.2014 15:06 22,8 C 26,3 C 25,4 C 21 % 61 % 1018 hPa 0,0 l/m 0,0 km/h (0 Bft) 3 min
27.06.2014 15:09 22,8 C 26,4 C 25,5 C 20 % 61 % 1018 hPa 0,0 l/m 0,0 km/h (0 Bft) 3 min
27.06.2014 15:12 22,8 C 26,4 C 24,9 C 20 % 61 % 1018 hPa 0,0 l/m 0,0 km/h (0 Bft) 3 min
27.06.2014 15:15 22,8 C 26,7 C 25,4 C 21 % 61 % 1018 hPa 0,0 l/m 0,0 km/h (0 Bft) 3 min
27.06.2014 15:18 22,8 C 26,8 C 25,1 C 20 % 61 % 1018 hPa 0,0 l/m 0,0 km/h (0 Bft) 3 min
27.06.2014 15:21 22,8 C 26,4 C 24,3 C 20 % 61 % 1018 hPa 0,0 l/m 0,0 km/h (0 Bft) 3 min
27.06.2014 15:24 22,8 C 26,1 C 24,4 C 20 % 61 % 1018 hPa 0,0 l/m 0,0 km/h (0 Bft) 3 min
27.06.2014 15:27 22,8 C 26,2 C 25,2 C 22 % 61 % 1018 hPa 0,0 l/m 0,1 km/h (0 Bft) 3 min
27.06.2014 15:30 22,8 C 26,4 C 24,9 C 21 % 72 % 1018 hPa 0,0 l/m 0,0 km/h (0 Bft) 3 min
27.06.2014 15:33 22,8 C 26,4 C 24,3 C 20 % 72 % 1018 hPa 0,0 l/m 0,0 km/h (0 Bft) 3 min
27.06.2014 15:36 22,8 C 26,0 C 24,3 C 20 % 72 % 1018 hPa 0,0 l/m 0,0 km/h (0 Bft) 3 min
27.06.2014 15:39 22,8 C 25,9 C 24,3 C 21 % 72 % 1018 hPa 0,0 l/m 0,0 km/h (0 Bft) 3 min
27.06.2014 15:42 22,9 C 26,1 C 24,8 C 24 % 72 % 1018 hPa 0,0 l/m 0,0 km/h (0 Bft) 3 min
27.06.2014 15:45 22,9 C 26,2 C 24,8 C 24 % 100 % 1018 hPa 0,0 l/m 0,0 km/h (0 Bft) 3 min
27.06.2014 15:48 22,8 C 26,2 C 24,9 C 24 % 100 % 1018 hPa 0,0 l/m 0,0 km/h (0 Bft) 3 min
27.06.2014 15:51 22,8 C 26,4 C 24,8 C 23 % 100 % 1018 hPa 0,0 l/m 0,0 km/h (0 Bft) 3 min
27.06.2014 15:54 22,8 C 26,5 C 24,8 C 22 % 100 % 1018 hPa 0,0 l/m 0,3 km/h (0 Bft) 3 min
27.06.2014 15:57 22,9 C 26,5 C 24,8 C 20 % 100 % 1018 hPa 0,0 l/m 0,0 km/h (0 Bft) 3 min
27.06.2014 16:00 22,9 C 26,7 C 25,2 C 22 % 100 % 1018 hPa 0,0 l/m 0,0 km/h (0 Bft) 3 min
27.06.2014 16:03 22,9 C 26,8 C 25,2 C 21 % 100 % 1018 hPa 0,0 l/m 0,0 km/h (0 Bft) 3 min
27.06.2014 16:06 22,9 C 26,7 C 25,1 C 20 % 100 % 1018 hPa 0,0 l/m 0,1 km/h (0 Bft) 3 min
27.06.2014 16:09 22,9 C 26,8 C 25,1 C 20 % 100 % 1018 hPa 0,0 l/m 0,0 km/h (0 Bft) 3 min
27.06.2014 16:12 22,9 C 26,8 C 24,8 C 20 % 100 % 1018 hPa 0,0 l/m 0,0 km/h (0 Bft) 3 min
27.06.2014 16:15 22,9 C 26,9 C 25,3 C 20 % 100 % 1018 hPa 0,0 l/m 0,0 km/h (0 Bft) 3 min
27.06.2014 16:18 22,9 C 27,0 C 24,8 C 22 % 100 % 1018 hPa 0,0 l/m 0,0 km/h (0 Bft) 3 min
27.06.2014 16:21 22,9 C 27,1 C 25,2 C 20 % 49 % 1018 hPa 0,0 l/m 0,0 km/h (0 Bft) 0 min
27.06.2014 16:24 22,8 C 27,0 C 25,2 C 20 % 49 % 1018 hPa 0,0 l/m 0,0 km/h (0 Bft) 0 min
27.06.2014 16:27 22,8 C 26,9 C 24,8 C 20 % 49 % 1018 hPa 0,0 l/m 0,0 km/h (0 Bft) 0 min
27.06.2014 16:30 22,9 C 26,7 C 24,7 C 20 % 93 % 1018 hPa 0,0 l/m 0,0 km/h (0 Bft) 3 min
27.06.2014 16:33 23,0 C 26,7 C 25,1 C 20 % 93 % 1018 hPa 0,0 l/m 0,0 km/h (0 Bft) 3 min
27.06.2014 16:36 23,1 C 26,8 C 25,3 C 20 % 93 % 1018 hPa 0,0 l/m 0,0 km/h (0 Bft) 3 min
27.06.2014 16:39 23,1 C 26,8 C 25,0 C 20 % 99 % 1018 hPa 0,0 l/m 0,0 km/h (0 Bft) 3 min
27.06.2014 16:42 23,2 C 26,9 C 25,0 C 20 % 99 % 1018 hPa 0,0 l/m 0,0 km/h (0 Bft) 3 min
27.06.2014 16:45 23,2 C 26,9 C 25,2 C 20 % 34 % 1018 hPa 0,0 l/m 0,0 km/h (0 Bft) 0 min
27.06.2014 16:48 23,2 C 26,7 C 24,7 C 20 % 31 % 1018 hPa 0,0 l/m 0,0 km/h (0 Bft) 0 min
27.06.2014 16:51 23,2 C 26,5 C 25,0 C 21 % 31 % 1018 hPa 0,0 l/m 0,0 km/h (0 Bft) 0 min
27.06.2014 16:54 23,2 C 26,4 C 25,1 C 21 % 96 % 1018 hPa 0,0 l/m 0,0 km/h (0 Bft) 3 min
27.06.2014 16:57 23,0 C 26,5 C 25,4 C 20 % 96 % 1018 hPa 0,0 l/m 0,0 km/h (0 Bft) 3 min
27.06.2014 17:00 23,0 C 26,7 C 24,9 C 20 % 83 % 1018 hPa 0,0 l/m 0,0 km/h (0 Bft) 3 min
27.06.2014 17:03 23,0 C 26,8 C 24,9 C 21 % 83 % 1018 hPa 0,0 l/m 0,0 km/h (0 Bft) 3 min
27.06.2014 17:06 23,1 C 26,8 C 25,2 C 21 % 74 % 1018 hPa 0,0 l/m 0,0 km/h (0 Bft) 3 min
27.06.2014 17:09 23,2 C 26,8 C 25,1 C 21 % 76 % 1018 hPa 0,0 l/m 0,0 km/h (0 Bft) 3 min
27.06.2014 17:12 23,2 C 27,0 C 24,7 C 21 % 71 % 1018 hPa 0,0 l/m 0,0 km/h (0 Bft) 3 min
27.06.2014 17:15 23,2 C 27,0 C 25,3 C 20 % 71 % 1018 hPa 0,0 l/m 0,0 km/h (0 Bft) 3 min
27.06.2014 17:18 23,2 C 27,1 C 25,3 C 20 % 71 % 1018 hPa 0,0 l/m 0,0 km/h (0 Bft) 3 min
27.06.2014 17:21 23,0 C 27,0 C 25,1 C 20 % 66 % 1018 hPa 0,0 l/m 0,0 km/h (0 Bft) 3 min
27.06.2014 17:24 23,0 C 26,9 C 24,3 C 23 % 66 % 1018 hPa 0,0 l/m 0,0 km/h (0 Bft) 3 min
27.06.2014 17:27 23,0 C 26,7 C 24,5 C 24 % 59 % 1018 hPa 0,0 l/m 0,0 km/h (0 Bft) 3 min
27.06.2014 17:30 23,0 C 26,7 C 25,0 C 24 % 56 % 1018 hPa 0,0 l/m 0,0 km/h (0 Bft) 3 min
27.06.2014 17:33 22,9 C 26,7 C 25,4 C 25 % 55 % 1018 hPa 0,0 l/m 0,0 km/h (0 Bft) 3 min
27.06.2014 17:36 23,0 C 26,8 C 24,8 C 24 % 49 % 1018 hPa 0,0 l/m 0,0 km/h (0 Bft) 3 min
27.06.2014 17:39 23,0 C 26,9 C 25,1 C 22 % 54 % 1018 hPa 0,0 l/m 0,0 km/h (0 Bft) 3 min
27.06.2014 17:42 23,0 C 27,0 C 24,8 C 20 % 54 % 1018 hPa 0,0 l/m 0,0 km/h (0 Bft) 3 min
27.06.2014 17:45 23,0 C 27,0 C 25,3 C 20 % 54 % 1018 hPa 0,0 l/m 0,0 km/h (0 Bft) 3 min
27.06.2014 17:48 23,0 C 27,1 C 24,8 C 20 % 50 % 1017 hPa 0,0 l/m 0,0 km/h (0 Bft) 3 min
27.06.2014 17:51 23,0 C 27,1 C 25,2 C 20 % 47 % 1017 hPa 0,0 l/m 0,0 km/h (0 Bft) 3 min
27.06.2014 17:54 23,0 C 27,0 C 25,1 C 20 % 47 % 1017 hPa 0,0 l/m 0,0 km/h (0 Bft) 3 min
27.06.2014 17:57 23,0 C 27,1 C 25,4 C 21 % 47 % 1017 hPa 0,0 l/m 0,0 km/h (0 Bft) 3 min
27.06.2014 18:00 23,0 C 27,1 C 24,8 C 20 % 47 % 1017 hPa 0,0 l/m 0,0 km/h (0 Bft) 3 min
27.06.2014 18:03 23,0 C 27,1 C 25,3 C 20 % 47 % 1017 hPa 0,0 l/m 0,0 km/h (0 Bft) 3 min
27.06.2014 18:06 23,0 C 27,1 C 25,0 C 20 % 47 % 1017 hPa 0,0 l/m 0,0 km/h (0 Bft) 3 min
27.06.2014 18:09 22,9 C 27,1 C 25,1 C 20 % 37 % 1017 hPa 0,0 l/m 0,0 km/h (0 Bft) 3 min
27.06.2014 18:12 22,9 C 27,1 C 25,2 C 20 % 36 % 1017 hPa 0,0 l/m 0,0 km/h (0 Bft) 3 min
27.06.2014 18:15 22,8 C 27,1 C 25,3 C 20 % 36 % 1017 hPa 0,0 l/m 0,0 km/h (0 Bft) 3 min
27.06.2014 18:18 22,8 C 27,1 C 24,8 C 21 % 37 % 1017 hPa 0,0 l/m 0,0 km/h (0 Bft) 3 min
27.06.2014 18:21 22,8 C 27,2 C 24,8 C 23 % 34 % 1017 hPa 0,0 l/m 0,0 km/h (0 Bft) 3 min
27.06.2014 18:24 22,8 C 27,2 C 25,1 C 23 % 34 % 1017 hPa 0,0 l/m 0,0 km/h (0 Bft) 3 min
27.06.2014 18:27 22,8 C 27,0 C 25,0 C 20 % 34 % 1017 hPa 0,0 l/m 0,0 km/h (0 Bft) 3 min
27.06.2014 18:30 22,8 C 26,8 C 25,0 C 21 % 27 % 1017 hPa 0,0 l/m 0,0 km/h (0 Bft) 0 min
27.06.2014 18:33 22,8 C 26,7 C 25,0 C 23 % 27 % 1017 hPa 0,0 l/m 0,0 km/h (0 Bft) 0 min
27.06.2014 18:36 22,8 C 26,5 C 24,3 C 24 % 27 % 1017 hPa 0,0 l/m 0,0 km/h (0 Bft) 3 min
27.06.2014 18:39 22,8 C 26,4 C 24,6 C 24 % 28 % 1017 hPa 0,0 l/m 0,0 km/h (0 Bft) 3 min
27.06.2014 18:42 22,8 C 26,4 C 24,9 C 25 % 32 % 1017 hPa 0,0 l/m 0,0 km/h (0 Bft) 3 min
27.06.2014 18:45 22,8 C 26,4 C 24,2 C 26 % 33 % 1017 hPa 0,0 l/m 0,0 km/h (0 Bft) 3 min
27.06.2014 18:48 22,9 C 26,3 C 24,7 C 26 % 28 % 1017 hPa 0,0 l/m 0,0 km/h (0 Bft) 3 min
27.06.2014 18:51 22,9 C 26,3 C 24,4 C 26 % 26 % 1017 hPa 0,0 l/m 0,0 km/h (0 Bft) 3 min
27.06.2014 18:54 22,9 C 26,2 C 24,4 C 27 % 25 % 1017 hPa 0,0 l/m 0,0 km/h (0 Bft) 3 min
27.06.2014 18:57 22,8 C 26,2 C 23,9 C 27 % 27 % 1017 hPa 0,0 l/m 0,0 km/h (0 Bft) 3 min
27.06.2014 19:00 22,9 C 26,0 C 24,4 C 29 % 24 % 1017 hPa 0,0 l/m 0,0 km/h (0 Bft) 3 min
27.06.2014 19:03 22,9 C 26,0 C 24,4 C 31 % 24 % 1017 hPa 0,0 l/m 0,0 km/h (0 Bft) 3 min
27.06.2014 19:06 22,8 C 25,9 C 23,5 C 31 % 22 % 1017 hPa 0,0 l/m 0,0 km/h (0 Bft) 3 min
27.06.2014 19:09 22,8 C 25,8 C 23,2 C 31 % 21 % 1017 hPa 0,0 l/m 0,0 km/h (0 Bft) 3 min
27.06.2014 19:12 22,8 C 25,7 C 23,4 C 31 % 21 % 1017 hPa 0,0 l/m 0,0 km/h (0 Bft) 3 min
27.06.2014 19:15 22,8 C 25,6 C 23,3 C 31 % 21 % 1017 hPa 0,0 l/m 0,0 km/h (0 Bft) 3 min
27.06.2014 19:18 22,8 C 25,5 C 23,5 C 30 % 21 % 1017 hPa 0,0 l/m 0,3 km/h (0 Bft) 3 min
27.06.2014 19:21 22,8 C 25,4 C 23,6 C 30 % 22 % 1017 hPa 0,0 l/m 0,0 km/h (0 Bft) 3 min
27.06.2014 19:24 22,8 C 25,4 C 23,6 C 30 % 22 % 1017 hPa 0,0 l/m 0,0 km/h (0 Bft) 3 min
27.06.2014 19:27 22,8 C 25,3 C 23,4 C 30 % 22 % 1017 hPa 0,0 l/m 0,0 km/h (0 Bft) 3 min
27.06.2014 19:30 22,8 C 25,3 C 23,4 C 30 % 22 % 1017 hPa 0,0 l/m 0,0 km/h (0 Bft) 3 min
27.06.2014 19:33 22,8 C 25,2 C 23,4 C 31 % 22 % 1017 hPa 0,0 l/m 0,0 km/h (0 Bft) 3 min
27.06.2014 19:36 22,8 C 25,2 C 23,4 C 32 % 21 % 1017 hPa 0,0 l/m 0,0 km/h (0 Bft) 3 min
27.06.2014 19:39 22,9 C 25,2 C 23,5 C 32 % 21 % 1017 hPa 0,0 l/m 0,0 km/h (0 Bft) 3 min
27.06.2014 19:42 22,9 C 25,2 C 23,6 C 33 % 20 % 1017 hPa 0,0 l/m 0,0 km/h (0 Bft) 3 min
27.06.2014 19:45 22,9 C 25,1 C 23,5 C 33 % 20 % 1017 hPa 0,0 l/m 0,0 km/h (0 Bft) 3 min
27.06.2014 19:48 22,8 C 25,1 C 23,5 C 33 % 19 % 1017 hPa 0,0 l/m 0,0 km/h (0 Bft) 3 min
27.06.2014 19:51 22,9 C 25,1 C 23,3 C 33 % 19 % 1017 hPa 0,0 l/m 0,0 km/h (0 Bft) 3 min
27.06.2014 19:54 22,9 C 25,1 C 23,3 C 33 % 19 % 1017 hPa 0,0 l/m 0,0 km/h (0 Bft) 3 min
27.06.2014 19:57 22,8 C 25,0 C 23,3 C 32 % 13 % 1017 hPa 0,0 l/m 0,0 km/h (0 Bft) 3 min
27.06.2014 20:00 22,8 C 25,0 C 23,3 C 32 % 12 % 1017 hPa 0,0 l/m 0,0 km/h (0 Bft) 3 min
27.06.2014 20:03 22,8 C 24,8 C 23,2 C 33 % 12 % 1017 hPa 0,0 l/m 0,0 km/h (0 Bft) 3 min
27.06.2014 20:06 22,9 C 24,6 C 23,0 C 35 % 11 % 1017 hPa 0,0 l/m 0,0 km/h (0 Bft) 3 min
27.06.2014 20:09 22,9 C 24,6 C 23,0 C 35 % 10 % 1017 hPa 0,0 l/m 0,0 km/h (0 Bft) 3 min
27.06.2014 20:12 22,9 C 24,4 C 22,9 C 37 % 10 % 1017 hPa 0,0 l/m 0,0 km/h (0 Bft) 3 min
27.06.2014 20:15 22,9 C 24,4 C 22,5 C 37 % 9 % 1017 hPa 0,0 l/m 0,0 km/h (0 Bft) 3 min
27.06.2014 20:18 22,8 C 24,3 C 22,4 C 37 % 9 % 1017 hPa 0,0 l/m 0,0 km/h (0 Bft) 3 min
27.06.2014 20:21 22,8 C 24,2 C 22,4 C 38 % 9 % 1017 hPa 0,0 l/m 0,0 km/h (0 Bft) 3 min
27.06.2014 20:24 22,9 C 24,1 C 22,0 C 38 % 9 % 1017 hPa 0,0 l/m 0,0 km/h (0 Bft) 3 min
27.06.2014 20:27 22,8 C 24,0 C 21,8 C 38 % 8 % 1017 hPa 0,0 l/m 0,0 km/h (0 Bft) 3 min
27.06.2014 20:30 22,8 C 24,0 C 21,7 C 39 % 8 % 1017 hPa 0,0 l/m 0,0 km/h (0 Bft) 3 min
27.06.2014 20:33 22,8 C 23,9 C 21,6 C 39 % 8 % 1017 hPa 0,0 l/m 0,0 km/h (0 Bft) 3 min
27.06.2014 20:36 22,8 C 23,8 C 21,6 C 39 % 8 % 1017 hPa 0,0 l/m 0,0 km/h (0 Bft) 3 min
27.06.2014 20:39 22,8 C 23,7 C 21,4 C 40 % 6 % 1017 hPa 0,0 l/m 0,0 km/h (0 Bft) 3 min
27.06.2014 20:42 22,8 C 23,6 C 21,4 C 40 % 6 % 1017 hPa 0,0 l/m 0,0 km/h (0 Bft) 3 min
27.06.2014 20:45 22,8 C 23,5 C 21,3 C 40 % 5 % 1017 hPa 0,0 l/m 0,0 km/h (0 Bft) 3 min
27.06.2014 20:48 22,8 C 23,3 C 21,3 C 41 % 4 % 1017 hPa 0,0 l/m 0,0 km/h (0 Bft) 3 min
27.06.2014 20:51 22,8 C 23,2 C 21,1 C 41 % 4 % 1017 hPa 0,0 l/m 0,0 km/h (0 Bft) 3 min
27.06.2014 20:54 22,8 C 23,1 C 21,1 C 42 % 4 % 1017 hPa 0,0 l/m 0,0 km/h (0 Bft) 3 min
27.06.2014 20:57 22,8 C 22,9 C 21,0 C 43 % 3 % 1017 hPa 0,0 l/m 0,0 km/h (0 Bft) 3 min
27.06.2014 21:00 22,8 C 22,8 C 21,1 C 43 % 3 % 1017 hPa 0,0 l/m 0,0 km/h (0 Bft) 0 min
27.06.2014 21:03 22,8 C 22,8 C 21,1 C 43 % 3 % 1017 hPa 0,0 l/m 0,0 km/h (0 Bft) 0 min
27.06.2014 21:06 22,8 C 22,5 C 21,1 C 44 % 3 % 1017 hPa 0,0 l/m 0,0 km/h (0 Bft) 0 min
27.06.2014 21:09 22,8 C 22,4 C 21,2 C 44 % 1 % 1017 hPa 0,0 l/m 0,0 km/h (0 Bft) 0 min
27.06.2014 21:12 22,8 C 22,3 C 21,0 C 44 % 1 % 1017 hPa 0,0 l/m 0,0 km/h (0 Bft) 0 min
27.06.2014 21:15 22,8 C 22,2 C 20,9 C 44 % 1 % 1017 hPa 0,0 l/m 0,0 km/h (0 Bft) 0 min
27.06.2014 21:18 22,8 C 22,1 C 20,8 C 44 % 1 % 1017 hPa 0,0 l/m 0,0 km/h (0 Bft) 0 min
27.06.2014 21:21 22,8 C 22,0 C 20,8 C 44 % 1 % 1017 hPa 0,0 l/m 0,0 km/h (0 Bft) 0 min
27.06.2014 21:24 22,8 C 21,9 C 20,4 C 45 % 1 % 1017 hPa 0,0 l/m 0,0 km/h (0 Bft) 0 min
27.06.2014 21:27 22,8 C 21,8 C 20,2 C 45 % 0 % 1018 hPa 0,0 l/m 0,0 km/h (0 Bft) 0 min
27.06.2014 21:30 22,8 C 21,7 C 20,1 C 45 % 0 % 1018 hPa 0,0 l/m 0,0 km/h (0 Bft) 0 min
27.06.2014 21:33 22,8 C 21,6 C 20,1 C 46 % 0 % 1018 hPa 0,0 l/m 0,0 km/h (0 Bft) 0 min
27.06.2014 21:36 22,8 C 21,5 C 20,0 C 46 % 0 % 1018 hPa 0,0 l/m 0,0 km/h (0 Bft) 0 min
27.06.2014 21:39 22,8 C 21,4 C 19,8 C 46 % 0 % 1018 hPa 0,0 l/m 0,0 km/h (0 Bft) 0 min
27.06.2014 21:42 22,8 C 21,3 C 19,8 C 46 % 0 % 1018 hPa 0,0 l/m 0,0 km/h (0 Bft) 0 min
27.06.2014 21:45 22,8 C 21,3 C 19,7 C 46 % 0 % 1018 hPa 0,0 l/m 0,0 km/h (0 Bft) 0 min
27.06.2014 21:48 22,8 C 21,2 C 19,6 C 46 % 0 % 1018 hPa 0,0 l/m 0,0 km/h (0 Bft) 0 min
27.06.2014 21:51 22,8 C 21,1 C 19,5 C 47 % 0 % 1018 hPa 0,0 l/m 0,0 km/h (0 Bft) 0 min
27.06.2014 21:54 22,8 C 21,1 C 19,5 C 47 % 0 % 1018 hPa 0,0 l/m 0,0 km/h (0 Bft) 0 min
27.06.2014 21:57 22,8 C 21,1 C 19,7 C 47 % 0 % 1018 hPa 0,0 l/m 0,0 km/h (0 Bft) 0 min
27.06.2014 22:00 22,8 C 20,5 C 19,3 C 49 % 0 % 1018 hPa 0,0 l/m 0,0 km/h (0 Bft) 0 min
27.06.2014 22:03 22,8 C 20,5 C 19,1 C 49 % 0 % 1018 hPa 0,0 l/m 0,0 km/h (0 Bft) 0 min
27.06.2014 22:06 22,8 C 20,4 C 18,9 C 48 % 0 % 1018 hPa 0,0 l/m 0,0 km/h (0 Bft) 0 min
27.06.2014 22:09 22,8 C 20,4 C 18,8 C 49 % 0 % 1018 hPa 0,0 l/m 0,0 km/h (0 Bft) 0 min
27.06.2014 22:12 22,8 C 20,2 C 18,7 C 49 % 0 % 1018 hPa 0,0 l/m 0,0 km/h (0 Bft) 0 min
27.06.2014 22:15 22,8 C 20,2 C 19,0 C 50 % 0 % 1018 hPa 0,0 l/m 0,0 km/h (0 Bft) 0 min
27.06.2014 22:18 22,8 C 20,0 C 19,0 C 50 % 0 % 1018 hPa 0,0 l/m 0,0 km/h (0 Bft) 0 min
27.06.2014 22:21 22,8 C 19,8 C 18,7 C 51 % 0 % 1018 hPa 0,0 l/m 0,0 km/h (0 Bft) 0 min
27.06.2014 22:24 22,8 C 19,7 C 18,7 C 51 % 0 % 1018 hPa 0,0 l/m 0,0 km/h (0 Bft) 0 min
27.06.2014 22:27 22,8 C 19,7 C 18,7 C 51 % 0 % 1018 hPa 0,0 l/m 0,0 km/h (0 Bft) 0 min
27.06.2014 22:30 22,8 C 19,6 C 18,5 C 52 % 0 % 1018 hPa 0,0 l/m 0,0 km/h (0 Bft) 0 min
27.06.2014 22:33 22,8 C 19,6 C 18,3 C 52 % 0 % 1018 hPa 0,0 l/m 0,0 km/h (0 Bft) 0 min
27.06.2014 22:36 22,8 C 19,4 C 18,3 C 52 % 0 % 1018 hPa 0,0 l/m 0,0 km/h (0 Bft) 0 min
27.06.2014 22:39 22,8 C 19,4 C 18,2 C 52 % 0 % 1018 hPa 0,0 l/m 0,0 km/h (0 Bft) 0 min
27.06.2014 22:42 22,8 C 19,2 C 18,1 C 53 % 0 % 1018 hPa 0,0 l/m 0,0 km/h (0 Bft) 0 min
27.06.2014 22:45 22,8 C 19,1 C 18,3 C 53 % 0 % 1018 hPa 0,0 l/m 0,0 km/h (0 Bft) 0 min
27.06.2014 22:48 22,8 C 18,9 C 18,2 C 55 % 0 % 1018 hPa 0,0 l/m 0,0 km/h (0 Bft) 0 min
27.06.2014 22:51 22,8 C 18,8 C 18,2 C 55 % 0 % 1018 hPa 0,0 l/m 0,0 km/h (0 Bft) 0 min
27.06.2014 22:54 22,8 C 18,8 C 18,2 C 55 % 0 % 1018 hPa 0,0 l/m 0,0 km/h (0 Bft) 0 min
27.06.2014 22:57 22,8 C 18,8 C 18,0 C 55 % 0 % 1018 hPa 0,0 l/m 0,0 km/h (0 Bft) 0 min
27.06.2014 23:00 22,8 C 18,7 C 17,9 C 56 % 0 % 1018 hPa 0,0 l/m 0,0 km/h (0 Bft) 0 min
27.06.2014 23:03 22,9 C 18,5 C 17,8 C 56 % 0 % 1018 hPa 0,0 l/m 0,0 km/h (0 Bft) 0 min
27.06.2014 23:06 22,8 C 18,4 C 17,7 C 56 % 0 % 1018 hPa 0,0 l/m 0,0 km/h (0 Bft) 0 min
27.06.2014 23:09 22,8 C 18,2 C 17,5 C 57 % 0 % 1018 hPa 0,0 l/m 0,0 km/h (0 Bft) 0 min
27.06.2014 23:12 22,8 C 18,1 C 17,7 C 58 % 0 % 1018 hPa 0,0 l/m 0,0 km/h (0 Bft) 0 min
27.06.2014 23:15 22,8 C 18,0 C 17,6 C 60 % 0 % 1018 hPa 0,0 l/m 0,0 km/h (0 Bft) 0 min
27.06.2014 23:18 22,8 C 17,9 C 17,6 C 60 % 0 % 1018 hPa 0,0 l/m 0,0 km/h (0 Bft) 0 min
27.06.2014 23:21 22,8 C 17,9 C 17,7 C 60 % 0 % 1018 hPa 0,0 l/m 0,0 km/h (0 Bft) 0 min
27.06.2014 23:24 22,8 C 17,9 C 17,7 C 60 % 0 % 1018 hPa 0,0 l/m 0,0 km/h (0 Bft) 0 min
27.06.2014 23:27 22,8 C 17,8 C 17,5 C 60 % 0 % 1018 hPa 0,0 l/m 0,0 km/h (0 Bft) 0 min
27.06.2014 23:30 22,8 C 17,7 C 17,3 C 60 % 0 % 1018 hPa 0,0 l/m 0,0 km/h (0 Bft) 0 min
27.06.2014 23:33 22,8 C 17,7 C 17,2 C 61 % 0 % 1018 hPa 0,0 l/m 0,0 km/h (0 Bft) 0 min
27.06.2014 23:36 22,8 C 17,6 C 17,3 C 60 % 0 % 1018 hPa 0,0 l/m 0,0 km/h (0 Bft) 0 min
27.06.2014 23:39 22,8 C 17,6 C 17,2 C 60 % 0 % 1018 hPa 0,0 l/m 0,0 km/h (0 Bft) 0 min
27.06.2014 23:42 22,8 C 17,6 C 17,0 C 60 % 0 % 1018 hPa 0,0 l/m 0,0 km/h (0 Bft) 0 min
27.06.2014 23:45 22,8 C 17,5 C 17,1 C 60 % 0 % 1018 hPa 0,0 l/m 0,0 km/h (0 Bft) 0 min
27.06.2014 23:48 22,8 C 17,5 C 16,8 C 60 % 0 % 1018 hPa 0,0 l/m 0,0 km/h (0 Bft) 0 min
27.06.2014 23:51 22,8 C 17,4 C 16,9 C 60 % 0 % 1018 hPa 0,0 l/m 0,0 km/h (0 Bft) 0 min
27.06.2014 23:54 22,8 C 17,3 C 16,9 C 60 % 0 % 1018 hPa 0,0 l/m 0,0 km/h (0 Bft) 0 min
27.06.2014 23:57 22,8 C 17,1 C 16,7 C 59 % 0 % 1018 hPa 0,0 l/m 0,0 km/h (0 Bft) 0 min
_ Min-Zeit 08:54 05:21 04:39 14:39 - 03:30 - 00:02 -
Minimum _ 21,0 C 10,1 C 10,4 C 20 % - 1017 hPa - 0,0 km/h (0 Bft) -
_ Max-Zeit 16:42 18:21 14:30 06:24 10:54 06:03 00:02 10:33 05:21
Maximum _ 23,2 C 27,2 C 25,6 C 80 % 100 % 1019 hPa 0,0 l/m 8,3 km/h
O (2 Bft)
3 min
Durchschnitt _ 22,5 C 19,3 C 19,0 C 50 % #13:42 h 1018 hPa #0,0 l/m 0,9 km/h (0 Bft) #13:42 h